[[{"header":{"parameterUnit":"m.s-1","parameterCategory":1,"la1":30.2991,"la2":30.254,"lo1":-89.0895,"lo2":-89.0444,"dy":0.0017,"dx":0.0017,"nx":28,"ny":28,"refTime":"2023-09-03T09:00:00:Z","depth":0,"parameterNumber":2,"parameterNumberName":"U-component_of_WINDS"},"data":[0,0,0,0,0,0,0,0,0,0,0,0,0,0,0,0,0,0,0,0,0,0,0,0,0,0,0,0,0,0,0,0,0,0,0,0,0,0,0,0,0,0,0,0,0,0,0,0,0,0,0,0,0,0,0,0,0,0,-4.2593,-4.2594,0,-4.2663,-4.2664,-4.2665,-4.2628,-4.2626,-4.2624,-4.2623,-4.2692,-4.2695,-4.2699,0,0,0,0,0,0,0,0,0,0,0,0,0,-4.2424,-4.2428,-4.2593,-4.2594,-4.2595,-4.2663,-4.2664,-4.2665,-4.2628,-4.2626,-4.2624,-4.2622,-4.2691,-4.2695,-4.2699,0,0,0,0,0,0,0,0,0,0,0,0,0,-4.2496,-4.2429,-4.2593,-4.2585,-4.2585,-4.2663,-4.2664,-4.2665,-4.2629,-4.2626,-4.2623,-4.2621,-4.2689,-4.2694,-4.27,-4.2789,0,0,-4.2716,-4.2718,0,0,0,0,0,0,0,0,-4.2492,-4.2502,-4.2585,-4.2585,-4.2585,-4.2634,-4.263,-4.2706,-4.263,-4.2612,-4.2622,-4.2619,-4.2675,-4.2681,-4.27,-4.2792,-4.2795,-4.2717,-4.272,-4.2722,-4.2724,0,0,0,0,0,0,0,-4.2487,-4.2499,-4.262,-4.2586,-4.2586,-4.2577,-4.2584,-4.2644,-4.2658,-4.2613,-4.2611,-4.262,-4.2674,-4.2695,-4.2702,-4.2796,-4.2716,-4.2721,-4.2725,-4.2727,-4.2963,-4.2966,0,0,0,0,0,0,-4.2483,-4.2495,-4.2618,-4.2623,-4.2531,-4.2582,-4.259,-4.2621,-4.2657,-4.266,-4.2622,-4.2618,-4.2687,-4.2695,-4.2704,-4.2809,-4.2722,-4.2727,-4.273,-4.296,-4.2964,-4.2967,0,0,0,0,0,0,-4.248,-4.2494,-4.2615,-4.2558,-4.2573,-4.2588,-4.2623,-4.2624,-4.2645,-4.2664,-4.2666,-4.2641,-4.2685,-4.2696,-4.2768,-4.2811,-4.273,-4.2734,-4.2956,-4.2961,-4.2965,-4.3021,0,0,0,0,0,0,-4.2475,-4.2493,-4.2528,-4.2559,-4.2576,-4.2679,-4.2626,-4.2627,-4.2655,-4.265,-4.2682,-4.2685,-4.2684,-4.276,-4.2773,-4.2817,-4.2739,-4.2952,-4.2958,-4.2964,-4.3015,-4.3027,-4.3037,0,0,0,0,0,-4.2469,-4.2541,-4.253,-4.2545,-4.262,-4.2682,-4.2691,-4.2689,-4.2658,-4.2692,-4.2705,-4.2684,-4.2805,-4.2768,-4.2782,-4.2828,-4.295,-4.2957,-4.2963,-4.301,-4.3024,-4.3036,0,0,0,0,0,0,-4.2513,-4.2545,-4.2533,-4.2617,-4.2647,-4.2675,-4.2718,-4.2705,-4.2743,-4.2737,-4.2732,-4.274,-4.2814,-4.2829,-4.2787,-4.2915,-4.2872,-4.2882,-4.2903,-4.2916,-4.2927,-4.2921,-4.2743,0,0,0,0,0,-4.2533,-4.2581,-4.2606,-4.2677,-4.2693,-4.2704,-4.273,-4.2727,-4.2757,-4.2769,-4.2786,-4.2816,-4.286,-4.289,-4.2932,-4.3018,-4.3023,-4.3057,-4.3067,-4.3076,-4.3084,-4.3129,-4.3143,-4.2989,-4.2989,-4.2989,0,0,-4.2573,-4.2597,-4.2627,-4.2687,-4.271,-4.2758,-4.2714,-4.2768,-4.2804,-4.2777,-4.2845,-4.2859,-4.2892,-4.2971,-4.3006,-4.2985,-4.3128,-4.3085,-4.3092,-4.3095,-4.3137,-4.3152,-4.3165,-4.2994,-4.2993,-4.2993,0,0,-4.2672,-4.2695,-4.2757,-4.2781,-4.2816,-4.2822,-4.2837,-4.2868,-4.2876,-4.2945,-4.2925,-4.2968,-4.3045,-4.3068,-4.3091,-4.3199,-4.318,-4.3213,-4.3268,-4.3311,-4.3324,-4.3334,-4.3371,-4.3384,-4.3221,-4.3221,-4.3221,0,-4.2717,-4.2791,-4.279,-4.2845,-4.2871,-4.285,-4.2912,-4.2935,-4.2982,-4.3,-4.2976,-4.3072,-4.3092,-4.3175,-4.3202,-4.3221,-4.3237,-4.3208,-4.3322,-4.3333,-4.3343,-4.3377,-4.3391,-4.3225,-4.3224,-4.3224,-4.3224,0,-4.2844,-4.2896,-4.2941,-4.2988,-4.3019,-4.3077,-4.3084,-4.3116,-4.311,-4.3118,-4.3188,-4.3212,-4.3258,-4.3278,-4.3273,-4.336,-4.3346,-4.3323,-4.3278,-4.3361,-4.3393,-4.3407,-4.323,-4.3228,-4.3227,-4.3227,0,0,-4.2971,-4.3016,-4.3033,-4.3053,-4.309,-4.313,-4.3187,-4.3232,-4.3259,-4.3292,-4.3339,-4.3405,-4.3383,-4.3408,-4.3405,-4.3444,-4.3525,-4.3416,-4.3416,-4.3433,-4.3621,-4.3637,-4.3653,-4.3515,-4.3517,-4.3519,-4.3618,0,-4.307,-4.317,-4.3171,-4.3262,-4.3309,-4.329,-4.3339,-4.3367,-4.3377,-4.3417,-4.3428,-4.3474,-4.3443,-4.3458,-4.3496,-4.3508,-4.3563,-4.3501,-4.3556,-4.3558,-4.3546,-4.367,-4.3687,-4.3778,-4.3631,-4.3633,-4.3635,0,-4.3199,-4.3237,-4.3333,-4.3363,-4.3383,-4.3427,-4.3468,-4.3508,-4.3539,-4.3543,-4.3571,-4.3562,-4.3619,-4.3576,-4.3652,-4.361,-4.3633,-4.3643,-4.3646,-4.3649,-4.3599,-4.3674,-4.3808,-4.3821,-4.3655,-4.3653,-4.3652,0,-4.3279,-4.3354,-4.3421,-4.3439,-4.3476,-4.3508,-4.3524,-4.3553,-4.358,-4.3616,-4.3633,-4.3676,-4.3698,-4.3731,-4.3733,-4.3702,-4.381,-4.3767,-4.3814,-4.3814,-4.3835,-4.3833,-4.3973,-4.3855,-4.3854,-4.3854,-4.3854,0,-4.3388,-4.3447,-4.3457,-4.3498,-4.3563,-4.3563,-4.3627,-4.3642,-4.3667,-4.3709,-4.3696,-4.3736,-4.3738,-4.3779,-4.3781,-4.3843,-4.3854,-4.3858,-4.3858,-4.3858,-4.3857,-4.3871,-4.3864,-4.3858,-4.3857,-4.3856,-4.3856,0,-4.3487,-4.3497,-4.3568,-4.3597,-4.3606,-4.3653,-4.3677,-4.3716,-4.3725,-4.3779,-4.3791,-4.3805,-4.3852,-4.3859,-4.3914,-4.3915,-4.399,-4.3984,-4.3979,-4.3977,-4.4023,-4.4018,-4.4174,-4.4193,-4.4065,-4.4066,-4.4067,0,-4.3555,-4.36,-4.3635,-4.3662,-4.3681,-4.3726,-4.3754,-4.3756,-4.3785,-4.3823,-4.3857,-4.3903,-4.3939,-4.4016,-4.403,-4.4072,-4.4065,-4.4117,-4.4071,-4.407,-4.4063,-4.4059,-4.4063,-4.4125,-4.4126,-4.4128,-4.4129,0,-4.3674,-4.3677,-4.3717,-4.376,-4.3793,-4.3827,-4.3858,-4.3881,-4.3887,-4.392,-4.3969,-4.3997,-4.4054,-4.4099,-4.414,-4.4156,-4.4143,-4.4143,-4.4156,-4.4155,-4.415,-4.4151,-4.4001,-4.4139,-4.4138,-4.4137,-4.4137,-4.4136,-4.3759,-4.3797,-4.3827,-4.3872,-4.3896,-4.3926,-4.3963,-4.3977,-4.4018,-4.4064,-4.4063,-4.4115,-4.4144,-4.4198,-4.4218,-4.4258,-4.4241,-4.426,-4.4264,-4.4268,-4.4272,-4.4146,-4.4266,-4.4266,-4.4266,-4.4265,-4.4265,0,-4.3875,-4.3893,-4.3935,-4.398,-4.4015,-4.4001,-4.4035,-4.4065,-4.4112,-4.414,-4.4177,-4.4232,-4.4276,-4.4294,-4.4336,-4.4365,-4.436,-4.4376,-4.4373,-4.4376,-4.4286,-4.4269,-4.438,-4.438,-4.438,-4.4379,-4.4379,-4.4379,-4.394,-4.4003,-4.4009,-4.4084,-4.4102,-4.4154,-4.4174,-4.4201,-4.4223,-4.4285,-4.4322,-4.4334,-4.4358,-4.4402,-4.4441,-4.4446,-4.4461,-4.4479,-4.448,-4.4395,-4.4383,-4.4372,-4.4356,-4.4483,-4.4483,-4.4567,-4.4568,-4.4569]},{"header":{"parameterUnit":"m.s-1","parameterCategory":1,"la1":30.2991,"la2":30.254,"lo1":-89.0895,"lo2":-89.0444,"dy":0.0017,"dx":0.0017,"nx":28,"ny":28,"refTime":"2023-09-03T09:00:00:Z","depth":0,"parameterNumber":3,"parameterNumberName":"V-component_of_WINDS"},"data":[0,0,0,0,0,0,0,0,0,0,0,0,0,0,0,0,0,0,0,0,0,0,0,0,0,0,0,0,0,0,0,0,0,0,0,0,0,0,0,0,0,0,0,0,0,0,0,0,0,0,0,0,0,0,0,0,0,0,4.6831,4.6831,0,4.687,4.687,4.6871,4.6801,4.6799,4.6796,4.6794,4.683,4.6833,4.6836,0,0,0,0,0,0,0,0,0,0,0,0,0,4.669,4.6693,4.6831,4.6831,4.6832,4.687,4.687,4.6871,4.6801,4.6799,4.6796,4.6793,4.6829,4.6833,4.6837,0,0,0,0,0,0,0,0,0,0,0,0,0,4.6743,4.6694,4.683,4.6802,4.6799,4.687,4.687,4.6871,4.6802,4.6799,4.6795,4.6792,4.6828,4.6833,4.6837,4.6936,0,0,4.6852,4.6854,0,0,0,0,0,0,0,0,4.674,4.6748,4.6805,4.6804,4.6801,4.6827,4.6834,4.6893,4.6803,4.6801,4.6794,4.679,4.6832,4.6836,4.6851,4.6938,4.694,4.6852,4.6855,4.6857,4.6858,0,0,0,0,0,0,0,4.6736,4.6746,4.6846,4.6806,4.6804,4.6785,4.6789,4.6845,4.6835,4.6801,4.6796,4.6802,4.683,4.6847,4.6851,4.694,4.6852,4.6856,4.6859,4.6861,4.7109,4.7113,0,0,0,0,0,0,4.6737,4.6743,4.6845,4.6847,4.6762,4.6791,4.6794,4.6822,4.6835,4.6833,4.6805,4.6798,4.684,4.6846,4.6852,4.6968,4.6857,4.6861,4.6864,4.7105,4.711,4.7114,0,0,0,0,0,0,4.6734,4.6747,4.6843,4.6794,4.6805,4.6797,4.6828,4.6825,4.6841,4.6838,4.6835,4.6824,4.6838,4.6846,4.6916,4.6968,4.6863,4.6868,4.7101,4.7107,4.7112,4.72,0,0,0,0,0,0,4.673,4.6746,4.6785,4.6795,4.6808,4.6908,4.6832,4.6828,4.685,4.6842,4.6855,4.6853,4.6836,4.6909,4.6921,4.6972,4.6871,4.7096,4.7103,4.711,4.7192,4.7208,4.7221,0,0,0,0,0,4.6726,4.6807,4.6787,4.68,4.6856,4.6911,4.6918,4.6897,4.6855,4.6892,4.689,4.6853,4.6961,4.6917,4.6929,4.6983,4.7093,4.7101,4.7109,4.7186,4.7205,4.7221,0,0,0,0,0,0,4.6801,4.6808,4.6786,4.6874,4.6892,4.6899,4.6946,4.6918,4.6948,4.6939,4.6911,4.6914,4.6989,4.6994,4.6945,4.7079,4.7019,4.7031,4.7073,4.7091,4.7106,4.7102,4.6875,0,0,0,0,0,4.6828,4.6874,4.6877,4.6954,4.6965,4.6954,4.6977,4.696,4.6977,4.6984,4.6987,4.7004,4.7042,4.7067,4.7102,4.7194,4.7194,4.7237,4.7251,4.7263,4.7272,4.732,4.7338,4.7142,4.7142,4.7141,0,0,4.6884,4.6894,4.6924,4.6969,4.6982,4.7028,4.6961,4.7013,4.7046,4.6992,4.7058,4.7061,4.7078,4.716,4.7195,4.7165,4.7327,4.7274,4.7283,4.7286,4.733,4.7349,4.7365,4.7147,4.7146,4.7145,0,0,4.7009,4.7022,4.7087,4.7101,4.7122,4.7114,4.713,4.7141,4.7141,4.7208,4.7168,4.7207,4.7273,4.7286,4.7302,4.7433,4.7399,4.7445,4.752,4.7566,4.7581,4.7595,4.764,4.7656,4.7455,4.7455,4.7455,0,4.7075,4.7145,4.7124,4.7178,4.7198,4.7154,4.7218,4.7232,4.7263,4.7277,4.7244,4.7325,4.7334,4.7416,4.7449,4.7464,4.7479,4.7442,4.7581,4.7595,4.7607,4.7649,4.7666,4.746,4.746,4.7459,4.7459,0,4.7224,4.7273,4.7323,4.7354,4.7381,4.744,4.7426,4.7455,4.7436,4.7431,4.7499,4.7508,4.7543,4.7562,4.7543,4.7642,4.7623,4.7586,4.7525,4.7631,4.767,4.7687,4.7468,4.7466,4.7465,4.7463,0,0,4.7396,4.7416,4.7434,4.7448,4.7467,4.7504,4.7561,4.7596,4.7621,4.7643,4.7689,4.7746,4.7712,4.773,4.7712,4.7754,4.7854,4.7711,4.7711,4.7736,4.7962,4.7988,4.8007,4.7833,4.7836,4.7839,4.796,0,4.7519,4.7618,4.7601,4.7696,4.774,4.7698,4.7747,4.7764,4.7762,4.7797,4.7794,4.7834,4.7787,4.7798,4.7837,4.7834,4.7899,4.7825,4.7873,4.7875,4.7868,4.8028,4.8056,4.8169,4.7975,4.7978,4.798,0,4.7675,4.7704,4.7805,4.7817,4.7834,4.7879,4.791,4.7945,4.7963,4.7958,4.7979,4.7953,4.8008,4.7949,4.8023,4.7973,4.7992,4.7994,4.7998,4.7999,4.7932,4.8032,4.8205,4.8222,4.8004,4.8002,4.8,0,4.7787,4.7852,4.792,4.7934,4.795,4.7982,4.799,4.8004,4.8027,4.8054,4.8067,4.81,4.8118,4.8143,4.8126,4.8085,4.8203,4.8142,4.8199,4.8199,4.8223,4.8222,4.84,4.824,4.824,4.8239,4.8239,0,4.7925,4.7987,4.7971,4.8013,4.8081,4.8061,4.8128,4.8131,4.8145,4.8185,4.8151,4.8189,4.8166,4.8203,4.819,4.8253,4.8261,4.8257,4.8253,4.8259,4.826,4.8269,4.826,4.8244,4.8243,4.8242,4.8241,0,4.8061,4.8053,4.8125,4.8135,4.8139,4.8189,4.8196,4.8234,4.823,4.8282,4.8292,4.8285,4.8326,4.8313,4.8357,4.8348,4.8427,4.8413,4.8421,4.8417,4.8473,4.8467,4.8663,4.8686,4.8513,4.8514,4.8516,0,4.8148,4.8196,4.8211,4.8237,4.8248,4.8289,4.8312,4.8293,4.8318,4.8342,4.8377,4.8415,4.8444,4.8511,4.8509,4.8542,4.8527,4.8593,4.8532,4.8536,4.8525,4.8522,4.8526,4.8605,4.8607,4.8608,4.861,0,4.8303,4.8297,4.8332,4.8367,4.8395,4.8421,4.8443,4.8465,4.8448,4.8478,4.852,4.8543,4.8588,4.8625,4.8655,4.8662,4.8632,4.863,4.8644,4.865,4.8652,4.8649,4.8452,4.8625,4.8623,4.8622,4.8621,4.8621,4.8416,4.8456,4.8473,4.8513,4.8528,4.855,4.8586,4.8587,4.8622,4.8658,4.8645,4.8693,4.8708,4.8745,4.8756,4.8792,4.8766,4.8788,4.8793,4.8798,4.8804,4.8648,4.8798,4.8797,4.8797,4.8797,4.8796,0,4.8567,4.8577,4.8614,4.8647,4.8678,4.865,4.8673,4.8701,4.8744,4.8762,4.8791,4.8839,4.8875,4.8877,4.891,4.8939,4.8926,4.8948,4.8944,4.8946,4.8826,4.8809,4.8958,4.8957,4.8957,4.8957,4.8957,4.8957,4.865,4.8715,4.8711,4.8783,4.8791,4.8839,4.8854,4.8873,4.8887,4.8942,4.8973,4.8974,4.8985,4.9019,4.905,4.905,4.9063,4.9089,4.9083,4.8971,4.8955,4.8939,4.8923,4.9093,4.9093,4.92,4.9201,4.9201]}]]